Regional Weather Roundup
Issued by NWS Newport/Morehead, NC

Current Version | Previous Version | Graphics & Text | Print | Product List | Glossary On
Versions: 1 2 3 4 5 6 7 8 9 10 11 12 13 14 15 16 17 18 19 20 21 22 23 24 25 26 27 28 29 30 31 32 33 34 35 36 37 38 39 40 41 42 43 44 45 46 47 48 49 50
000 ASUS42 KMHX 281413 RWRMHX WEATHER ROUNDUP FOR EASTERN NORTH CAROLINA NATIONAL WEATHER SERVICE NEWPORT/MOREHEAD CITY NC 1000 AM EDT THU JUL 28 2016 NOTE: "FAIR" INDICATES FEW OR NO CLOUDS BELOW 12,000 FEET WITH NO SIGNIFICANT WEATHER AND/OR OBSTRUCTIONS TO VISIBILITY NCZ015>017-031-032-045>047-102-103-281500- NORTH COAST CITY SKY/WX TMP DP RH WIND PRES REMARKS EDENTON SUNNY 86 76 71 SW3 29.94R ELIZABETH CITY SUNNY 86 77 74 VRB3 29.92F KITTY HAWK SUNNY 89 77 68 CALM 29.92F HX 101 MANTEO N/A 83 78 85 S6 29.94F $$ NCZ045>047-081-094-103-104-281500- CENTRAL COAST CITY SKY/WX TMP DP RH WIND PRES REMARKS FRISCO SUNNY 85 80 85 SW8 29.94F $$ NCZ095-097-098-100-101-281500- SOUTHERN COAST CITY SKY/WX TMP DP RH WIND PRES REMARKS BEAUFORT SUNNY 85 80 85 SW8 N/A CEDAR ISLAND NOT AVBL JACKSONVILLE MOSUNNY 89 76 65 W7 29.94F HX 100 PINEY ISLAND NOT AVBL WILMINGTON SUNNY 90 75 61 W13 29.97S HX 100 $$ NCZ011>013-027>030-043-044-078>080-089-090>093-098-281500- COASTAL PLAIN CITY SKY/WX TMP DP RH WIND PRES REMARKS AHOSKIE SUNNY 83 76 80 CALM 29.93S CLINTON SUNNY 88 76 66 SW8 29.96F ELIZABETHTOWN SUNNY 88 72 59 SW6 29.97F GOLDSBORO SUNNY 90 78 68 VRB7 29.93F HX 103 GREENVILLE SUNNY 88 79 74 SW5 29.95F HX 102 HAVELOCK SUNNY 89 77 67 W7 29.95F HX 101 KENANSVILLE NOT AVBL KINSTON SUNNY 90 75 62 SW5 29.95F HX 100 NEW BERN SUNNY 88 77 69 W6 29.95F HX 100 RICHLANDS SUNNY 91 77 63 W7 29.96F HX 104 ROCKY MOUNT SUNNY 86 79 79 SW7 29.94S WASHINGTON SUNNY 86 78 77 SW5 29.93F WHITEVILLE SUNNY 87 73 62 W6 29.98S $$ AMZ130-135-150-152-154-156-158-170-250-252-270-ANZ085-086-088-633-658-670-281500- MARINE OBSERVATIONS STATION/POSITION TIME TEMP WIND PRES WAVE SWELL AIR SEA DIR/SP/G HT/PER HT/PER (UTC) (F) (DEG/KT/KT) (MB) (FT/S) (FT/S) CHESAPEAKE LIGHT NOT AVBL 64 E VA BEACH 1350 82 82 200/ 6/ 8 1013.2 2/ 6 2/ 6 DUCK 1300 83 76 220/ 5/ 7 1012.8 2 E DUCK 1311 78 N/A 1/ 8 OREGON INLET 1300 83 84 190/ 5/ 5 1013.9 13E OREGON INLT 1400 81 N/A 2/ 5 2/ 5 HATTERAS CG 1300 84 83 210/ 7/ 9 1013.8 DIAMOND BUOY 1350 85 84 230/ 12/ 14 1014.2 2/ 5 2/ 6 CAPE LOOKOUT 1400 85 250/ 10/ 12 1014.1 BEAUFORT LAB 1300 85 82 230/ 3/ 7 1013.9 30 SE NEW RVR IN 1308 85 84 260/ 12/ 17 1014.7 30 SE NEW RVR IN 1325 84 N/A 4/ 5 27 SE WRIGHTSVLE 1308 85 84 250/ 12/ 14 1015.3 5 SE WRIGHTSVLE NOT AVBL 225 S CAPE HAT 1350 84 84 270/ 8/ 10 1017.1 3/ 5 3/ 5 41 SE CHARLESTON 1350 86 86 270/ 12/ 14 1016.0 4/ 6 3/ 6 $$

USA.gov is the U.S. government's official web portal to all federal, state and local government web resources and services.